FENGYUN 1C

Last updated on June 10, 2016, 5:47 a.m. UTC

1 25730U 99025A   16161.49334730  .00000267  00000-0  16323-3 0  9993
2 25730  98.9764 132.0893 0017941 192.8482 279.4762 14.14236359879687
UTC
Height (km)
Latitude
Longitude
Inclination
Orbital Period
UTC large
Height (km)
Speed (km/s)
/
Latitude / Longitude
Inclination (degrees)
Orbital Period (minutes)
Azimuth
Elevation
Range (km)
Doppler Factor
iOS Compass Heading
iOS Angle